Location: Poinsettia Observatory
(32.9673°N, 117.0346°W)
Time: 12:50:22
(UTC-07:00)

Daily predictions for brighter satellites

Satellite Brightness Start Highest point End
(mag) Time Altitude Azimuth Time Altitude Azimuth Time Altitude Azimuth
USA 215 3.8 20:04:47 10° SSE 20:11:13 58° SW 20:17:40 10° NW
SEDSat Delta rocket 3.8 20:10:05 10° SW 20:14:22 35° SSE 20:18:16 10° E
Resurs 01 Rocket 2.9 20:12:35 10° S 20:16:45 43° W 20:20:58 10° NNW
NOSS 5 (C) 4.3 20:14:07 10° SSW 20:17:55 76° ESE 20:21:06 10° NNE
OAO 3 Rocket 3.5 20:14:28 10° SW 20:19:16 51° SSE 20:24:05 10° E
Cosmos 2084 3.1 20:16:40 10° SSW 20:20:34 82° ESE 20:24:24 10° NNE
Sich 1 Rocket 4.2 20:16:37 10° SSE 20:20:50 38° E 20:25:05 10° NNE
Coronas F rocket 1.9 20:19:28 10° SSW 20:22:04 58° W 20:24:41 10° N
ERS-1 Rocket 3.9 20:23:30 10° SE 20:27:52 31° ENE 20:32:15 10° N
CZ-2D R/B 3.2 20:24:40 10° SSE 20:28:28 85° ENE 20:32:18 10° N
ISS -1.1 20:32:39 10° W 20:35:32 29° NW 20:38:26 10° NNE
Cosmos 407 Rocket 3.7 20:32:09 10° N 20:37:20 54° ENE 20:42:27 10° SSE
Cosmos 1733 Rocket 3.5 20:35:05 10° SSW 20:39:27 67° W 20:43:49 10° N
Cosmos 1908 Rocket 3.8 20:35:17 10° SSE 20:39:29 47° E 20:43:45 10° NNE
Meteor 1-10 Rocket 4.2 20:38:48 10° N 20:44:36 82° E 20:50:15 10° S
Cosmos 1606 3.4 20:40:59 10° NNE 20:44:37 36° E 20:47:16 16° SE
Cosmos 1862 3.7 20:41:11 10° SSE 20:45:03 45° E 20:48:57 10° NNE
Cosmos 1892 4.5 20:42:02 10° SSW 20:45:33 35° W 20:49:07 10° NNW
Cosmos 1452 Rocket 3.5 20:41:51 10° SSW 20:47:06 87° ESE 20:52:24 10° NNE
Cosmos 1184 Rocket 3.6 20:46:22 15° SSE 20:48:35 32° E 20:51:35 10° NNE
Abrixas 2.6 20:50:56 10° SW 20:53:53 50° SE 20:56:51 10° ENE
Cosmos 1190 Rocket 4.1 20:48:55 10° NNW 20:54:07 80° WSW 20:59:19 10° SSE
Cosmos 1238 Rocket 3.7 20:51:26 10° NNE 20:54:38 30° E 20:56:22 22° SE
EO 1 Delta rocket 4.3 20:50:12 10° NNE 20:55:31 47° E 21:00:00 10° SSE
Cosmos 2341 Rocket 4.2 20:49:51 10° SSE 20:55:56 53° E 21:02:00 10° NNE
SPOT 5 4.1 20:53:17 18° ESE 20:56:10 29° ENE 21:00:42 10° NNE
Meteosat 1 Rocket2 4.1 20:51:16 10° W 20:56:15 55° S 21:01:41 18° ESE
deb Chang Zheng 4 3.7 20:55:37 10° NNE 20:59:58 55° E 21:04:19 10° S
H-2A R/B 4.1 20:57:46 10° SSW 21:01:12 37° W 21:04:41 10° NNW
Cosmos 962 Rocket 4.5 20:57:37 10° S 21:03:39 61° E 21:09:46 10° NNE
Cosmos 1242 Rocket 4.0 21:02:21 10° NNE 21:05:17 22° ENE 21:05:37 22° E
Intelsat 3F5 C 4.4 21:02:10 10° W 21:05:27 48° S 21:06:17 37° SE
CENTAUR R/B 4.1 20:58:29 10° NW 21:06:01 44° WSW 21:13:44 10° S
YAOGAN 6 4.3 21:07:53 17° ENE 21:07:53 17° ENE 21:10:11 10° NNE
H-2A R/B 2.4 21:06:50 26° SE 21:08:53 47° ENE 21:12:57 10° N
Cosmos 1408 2.4 21:06:18 11° S 21:09:50 84° E 21:13:29 10° N
Meteor 1-27 Rocket 3.6 21:04:49 10° N 21:10:22 79° E 21:14:46 16° SSE
YAOGAN 11 4.4 21:08:21 12° S 21:12:27 70° W 21:17:01 10° NNW
Cosmos 1782 3.8 21:09:26 10° NNW 21:13:19 47° W 21:17:11 10° SSW
Timation 2 Rocket 4.5 21:10:53 10° N 21:16:29 40° ENE 21:19:07 27° ESE
ATLAS 5 CENTAUR R/B 3.8 21:11:00 10° NW 21:16:33 35° WSW 21:22:20 10° S
CZ-4 DEB 4.1 21:15:22 14° SSW 21:17:44 37° W 21:20:43 10° NNW
Cosmos 2154 Rocket 4.2 21:12:58 10° S 21:19:10 75° W 21:25:22 10° N
COS B Rocket 2.9 21:16:29 10° N 21:20:18 84° E 21:21:39 35° S
Cosmos 1174 3.5 21:21:29 10° NW 21:24:28 54° WSW 21:24:59 46° SSW
Okean 3 3.4 21:20:45 10° N 21:25:01 72° E 21:26:33 38° SSE
Cosmos 676 Rocket 4.2 21:20:03 10° NNW 21:25:15 70° WSW 21:28:37 22° S
BREEZE-M DEB (TANK) 4.3 21:14:33 10° NW 21:25:41 37° NNE 21:28:16 20° ENE
Cosmos 1825 2.9 21:23:53 10° SSW 21:27:36 52° W 21:31:20 10° N
Cosmos 1954 Rocket 4.0 21:23:10 10° NNW 21:28:24 87° WSW 21:31:07 29° SSE
GPS 2-05 Rocket1 3.5 21:25:28 10° WNW 21:29:08 54° N 21:30:20 35° ENE
Cosmos 1939 Rocket 3.0 21:27:48 31° S 21:29:34 69° W 21:33:29 10° NNW
Cosmos 489 Rocket 4.4 21:24:29 10° NNW 21:30:41 69° ENE 21:33:36 33° SSE
NOSS 8 (E) 4.4 21:35:05 64° ENE 21:35:05 64° ENE 21:38:13 10° NE
MetOp-A 4.2 21:33:35 38° SE 21:35:27 59° ENE 21:40:42 10° N
Atlas Centaur 2 2.4 21:35:14 10° WSW 21:37:47 26° SW 21:37:47 26° SW
Cosmos 1833 Rocket 3.7 21:37:07 10° N 21:42:01 30° ENE 21:42:58 28° E
PSLV R/B 4.4 21:43:22 34° N 21:43:22 34° N 21:45:14 10° N
Cosmos 2278 Rocket 3.8 21:38:34 10° SW 21:43:43 35° WNW 21:48:54 10° N
Cosmos 1023 Rocket 4.3 21:38:50 10° NNW 21:43:58 86° ENE 21:45:30 47° SSE
Cosmos 2366 rocket 4.1 21:41:55 38° SE 21:44:03 54° E 21:50:12 10° NNE
Cosmos 1741 Rocket 4.0 21:40:02 10° N 21:45:12 61° ENE 21:46:14 50° ESE
Okean 2 Rocket 3.6 21:42:12 19° SSW 21:45:15 58° W 21:49:36 10° N
CZ-4 SHROUD 4.3 21:47:01 37° N 21:47:01 37° N 21:49:05 10° N
CZ-4 R/B 4.3 21:46:55 10° NNE 21:50:35 41° ENE 21:50:35 41° ENE
Cosmos 1110 Rocket 4.1 21:53:35 51° E 21:53:35 51° E 21:58:26 10° NNE
Envisat 3.7 21:52:23 26° SSW 21:54:59 49° W 21:59:54 10° NNW
SL-08 RB Rocket 4.3 21:59:46 43° ENE 21:59:46 43° ENE 22:03:46 10° N
SEDSat Delta rocket 3.3 21:55:56 10° WSW 21:59:21 50° SW 21:59:21 50° SW
COSMOS 2487 4.1 21:59:25 10° NW 22:02:32 28° W 22:02:51 27° WSW
OAO 3 Rocket 3.3 21:57:50 10° W 22:02:48 76° N 22:03:43 58° ENE
Cosmos 614 Rocket 3.7 21:59:13 10° NNW 22:04:19 86° ENE 22:04:45 75° SSE
Cosmos 2082 Rocket 2.1 22:02:28 10° NNW 22:08:08 66° ENE 22:08:39 63° E
CZ-3A R/B 4.3 22:04:25 10° W 22:11:28 21° SW 22:11:49 21° SSW
Cosmos 1975 Rocket 4.3 22:07:50 10° NNW 22:11:47 35° W 22:12:50 30° WSW
Cosmos 2218 Rocket 4.2 22:11:24 31° SSW 22:14:36 72° W 22:21:00 10° N
Meteor 1-18 Rocket 4.2 22:09:54 10° N 22:15:48 67° E 22:16:07 65° E
Terra 3.1 22:19:00 29° NE 22:19:00 29° NE 22:22:04 10° N
Meteor 2-19 Rocket 4.3 22:17:09 67° SSE 22:17:53 76° E 22:24:00 10° N
Cosmos 1140 Rocket 4.4 22:14:18 10° NNW 22:19:06 40° W 22:20:11 36° SW
DNEPR-1 R/B 4.4 22:19:50 10° NW 22:24:13 46° W 22:24:13 46° W
Cosmos 1536 Rocket 4.2 22:20:22 10° N 22:23:51 54° N 22:23:51 54° N
NOAA 11 4.1 22:24:52 79° SSW 22:25:09 83° WSW 22:30:41 10° NNW
CZ-4B R/B 4.1 22:23:28 10° N 22:28:10 49° WNW 22:29:10 42° WSW
H-2A R/B 2.5 22:32:29 53° NE 22:32:29 53° NE 22:36:58 10° N
USA 234 3.5 22:26:10 10° NE 22:31:10 50° E 22:31:10 50° E
Cosmos 1727 Rocket 3.8 22:26:54 10° N 22:33:05 87° W 22:33:31 79° S
Meteor 2-8 Rocket 4.3 22:27:16 10° N 22:33:27 87° W 22:33:49 80° SSW
SPOT 1/Viking Rocket 4.5 22:47:30 40° W 22:47:30 40° W 22:52:23 10° NNW
Lacrosse 5 2.8 22:49:52 45° N 22:49:52 45° N 22:53:42 10° NNE
Cosmos 2369 Rocket 3.8 22:53:08 24° NE 22:53:08 24° NE 22:55:23 10° NNE
ARGOS 3.9 22:50:51 44° W 22:50:51 44° W 22:55:50 10° NNW
Cosmos 1821 Rocket 4.5 23:01:40 51° NE 23:01:40 51° NE 23:06:25 10° NNE
USA 229 DEB 4.5 23:19:02 10° NW 23:25:08 43° W 23:25:08 43° W
Cosmos 1833 Rocket 4.2 23:21:00 10° NW 23:24:40 28° W 23:24:40 28° W
USA 229 4.5 23:19:08 10° NW 23:25:13 44° W 23:25:13 44° W
NOSS 3-1 (A) 4.1 23:36:39 10° NNW 23:43:53 71° NNE 23:43:53 71° NNE
Terra 4.4 23:57:53 15° WNW 23:57:53 15° WNW 23:59:04 10° NW
